📊 Raw Sensor Data

Showing records 33251 to 33275 of 84,761 total

ID Distance (ft) Battery V Battery A Int Temp (°F) Int Humid (%) Ext Temp (°F) Solar V RSSI SNR Time Stamp
51523 14.8 4.00 6 83 46 79 5.10 -74 8 09/09/2025 04:30 PM
51522 14.7 4.00 6 83 47 76 5.10 -75 8 09/09/2025 04:15 PM
51521 14.7 4.00 0 85 45 79 5.10 -74 7 09/09/2025 03:45 PM
51520 14.8 4.00 6 85 45 77 5.10 -73 8 09/09/2025 03:30 PM
51519 14.8 4.00 0 84 46 77 5.10 -74 8 09/09/2025 03:15 PM
51518 14.7 4.00 6 84 46 78 5.10 -74 7 09/09/2025 03:00 PM
51517 14.8 4.00 0 86 45 79 5.10 -75 7 09/09/2025 02:45 PM
51516 14.8 4.00 0 85 45 80 5.10 -75 8 09/09/2025 02:30 PM
51515 14.8 4.00 6 85 45 79 5.10 -74 7 09/09/2025 02:15 PM
51514 14.8 4.00 6 86 45 80 5.10 -75 8 09/09/2025 02:00 PM
51513 14.8 3.99 0 85 45 80 5.10 -75 7 09/09/2025 01:45 PM
51512 14.8 3.99 0 85 44 78 5.10 -74 7 09/09/2025 01:30 PM
51511 14.8 3.99 0 86 44 79 5.10 -74 7 09/09/2025 01:15 PM
51510 14.8 3.99 0 87 43 78 5.10 -75 8 09/09/2025 01:00 PM
51509 14.8 3.99 0 84 45 81 5.10 -75 8 09/09/2025 12:45 PM
51508 14.8 3.99 0 84 45 76 5.10 -74 8 09/09/2025 12:30 PM
51507 14.8 3.99 0 85 45 76 5.10 -75 7 09/09/2025 12:15 PM
51506 14.9 3.99 6 89 41 84 5.10 -77 8 09/09/2025 12:00 PM
51505 14.9 3.99 6 86 42 79 5.10 -75 8 09/09/2025 11:45 AM
51504 14.8 3.99 6 83 43 78 5.10 -75 8 09/09/2025 11:30 AM
51503 14.9 4.13 0 84 42 77 5.10 -76 8 09/09/2025 11:15 AM
51502 15.0 4.13 6 84 41 79 5.10 -75 8 09/09/2025 11:00 AM
51501 14.9 3.99 0 81 42 80 5.10 -74 7 09/09/2025 10:45 AM
51500 14.8 3.99 6 77 41 74 5.10 -75 8 09/09/2025 10:15 AM
51499 14.8 3.99 0 75 42 77 5.10 -75 8 09/09/2025 10:00 AM